Weather History for Stanley, ID

Change the Weather History Date:

Tuesday, November 6, 2012

  Actual Average Record
Temperature  
Mean Temperature 41 °F 29 °F  
Max Temperature 59 °F 41 °F 64 °F (1999)
Min Temperature 22 °F 16 °F -9 °F (2003)
Degree Days  
Heating Degree Days 24 36  
Month to date heating degree days 153 209  
Since 1 July heating degree days 1740 2073  
Cooling Degree Days 0 0  
Month to date cooling degree days 0 0  
Year to date cooling degree days 3 3  
Moisture  
Dew Point 28 °F    
Average Humidity 67    
Maximum Humidity 100    
Minimum Humidity 33    
Precipitation  
Precipitation 0.00 in 0.09 in 0.83 in (2005)
Month to date precipitation 0.09 0.56  
Year to date precipitation 18.14 14.24  
Sea Level Pressure  
Sea Level Pressure 30.24 in    
Wind  
Wind Speed 2 mph (SE)    
Max Wind Speed 9 mph    
Max Gust Speed 12 mph    
T = Trace of Precipitation, MM = Missing Value Source: NWS Daily Summary

Daily Weather History Graph

Daily Weather History Graph

Search for Another Location

Airport:

Trip Planner

Search our weather history database for the weather conditions in past years. The results will help you decide how hot, cold, wet, or windy it might be!

Date:

Astronomy

Nov. 06, 2012 Rise Set
Actual Time 7:23 AM MST 5:22 PM MST
Civil Twilight 6:53 AM MST 5:52 PM MST
Nautical Twilight 6:18 AM MST 6:27 PM MST
Astronomical Twilight 5:44 AM MST 7:01 PM MST
Moon No Moon Rise 1:16 PM MST (11/6)
Length of Visible Light 10h 59m
Length of Day
9h 58m
Waning Gibbous, 52% of the Moon is Illuminated
Nov 6
Waning Gibbous
Nov 6
Last Quarter
Nov 13
New
Nov 20
First Quarter
Nov 28
Full

Hourly Weather History & Observations

Time (MST) Temp. Windchill Dew Point Humidity Pressure Visibility Wind Dir Wind Speed Gust Speed Precip Events Conditions
12:51 AM 28.9 °F - 27.0 °F 92% 30.36 in - Calm Calm - N/A   Unknown
1:51 AM 28.0 °F - 27.0 °F 96% 30.32 in - Calm Calm - N/A   Unknown
2:51 AM 28.0 °F 22.8 °F 26.1 °F 92% 30.31 in - ENE 4.6 mph - N/A   Unknown
3:51 AM 27.0 °F - 25.0 °F 92% 30.30 in - Calm Calm - N/A   Unknown
4:51 AM 25.0 °F - 24.1 °F 96% 30.32 in - Calm Calm - N/A   Unknown
5:51 AM 25.0 °F - 24.1 °F 96% 30.36 in - Calm Calm - N/A   Unknown
6:51 AM 24.1 °F - 23.0 °F 96% 30.38 in - Calm Calm - N/A   Unknown
7:51 AM 23.0 °F - 21.9 °F 96% 30.40 in - Calm Calm - N/A   Unknown
8:51 AM 26.1 °F - 25.0 °F 96% 30.40 in - Calm Calm - N/A   Unknown
9:51 AM 28.9 °F - 27.0 °F 92% 30.38 in - Calm Calm - N/A   Unknown
10:51 AM 30.9 °F - 30.0 °F 96% 30.36 in - Calm Calm - N/A   Unknown
11:51 AM 35.1 °F - 33.1 °F 92% 30.32 in - Calm Calm - N/A   Unknown
12:51 PM 46.0 °F - 34.0 °F 63% 30.23 in - Calm Calm - N/A   Unknown
1:51 PM 52.0 °F - 34.0 °F 50% 30.17 in - NNW 3.5 mph - N/A   Unknown
2:51 PM 55.9 °F - 33.1 °F 42% 30.12 in - North 4.6 mph - N/A   Unknown
3:51 PM 57.9 °F - 28.9 °F 33% 30.09 in - Calm Calm - N/A   Unknown
4:51 PM 48.0 °F - 34.0 °F 58% 30.13 in - South 5.8 mph - N/A   Unknown
5:51 PM 42.1 °F 37.7 °F 30.0 °F 62% 30.14 in - SSE 6.9 mph - N/A   Unknown
6:51 PM 39.0 °F 36.8 °F 28.9 °F 67% 30.15 in - SSE 3.5 mph - N/A   Unknown
7:51 PM 39.9 °F 35.1 °F 30.0 °F 68% 30.15 in - ESE 6.9 mph - N/A   Unknown
8:51 PM 37.9 °F 34.4 °F 28.0 °F 68% 30.13 in - SSW 4.6 mph - N/A   Unknown
9:51 PM 34.0 °F 29.8 °F 27.0 °F 75% 30.13 in - Variable 4.6 mph - N/A   Unknown
10:51 PM 32.0 °F - 26.1 °F 79% 30.12 in - Calm Calm - N/A   Unknown
11:51 PM 30.9 °F - 26.1 °F 82% 30.09 in - Calm Calm - N/A   Unknown